WP3OF-5 Weather Reports


time (UTC)temp
C
wind
direction
speed
KPH
gust
KPH
rain 1hr
cm
rain 24hr
cm
rain mn
cm
humidity
%
barometer
mb
20260508000328 25 133 3.2 4.8 0.00 0.00 0.00 87 1016.7
20260507235825 25 165 1.6 1.6 0.00 0.00 0.00 88 1016.7
20260507235323 25 125 0.0 1.6 0.00 0.00 0.00 87 1016.5
20260507234820 25 125 0.0 1.6 0.00 0.00 0.00 86 1016.8
20260507234316 25 94 0.0 1.6 0.00 0.00 0.00 86 1016.5
20260507233813 25 89 0.0 1.6 0.00 0.00 0.00 86 1016.6
20260507233311 25 136 3.2 3.2 0.00 0.00 0.00 86 1016.4
20260507232809 25 116 0.0 3.2 0.00 0.00 0.00 86 1016.4
20260507232306 25 106 0.0 3.2 0.00 0.00 0.00 86 1016.8
20260507231801 25 7 0.0 1.6 0.00 0.00 0.00 86 1016.7
20260507231258 25 6 0.0 1.6 0.00 0.00 0.00 86 1016.2
20260507230754 25 6 0.0 0.0 0.00 0.00 0.00 86 1016.5
20260507230252 25 6 1.6 1.6 0.00 0.00 0.00 86 1016.4
20260507225752 25 10 0.0 3.2 0.00 0.00 0.00 85 1016.2
20260507225248 25 13 0.0 3.2 0.00 0.00 0.00 85 1016.2
20260507224744 25 99 0.0 1.6 0.00 0.00 0.00 85 1016.2
20260507224241 25 90 0.0 4.8 0.00 0.00 0.00 84 1016.1
20260507223737 26 99 1.6 3.2 0.00 0.00 0.00 85 1016.0
20260507223234 26 114 0.0 1.6 0.00 0.00 0.00 84 1016.1
20260507222731 26 114 1.6 3.2 0.00 0.00 0.00 84 1016.0
20260507222227 26 110 0.0 0.0 0.00 0.00 0.00 83 1015.9
20260507221724 26 89 0.0 3.2 0.00 0.00 0.00 82 1015.9
20260507221220 26 173 0.0 1.6 0.00 0.00 0.00 81 1015.9
20260507220717 26 183 0.0 1.6 0.00 0.00 0.00 81 1016.0
20260507220216 27 246 0.0 0.0 0.00 0.00 0.00 81 1016.0
20260507215711 27 246 0.0 1.6 0.00 0.00 0.00 80 1015.9
20260507215209 27 195 0.0 0.0 0.00 0.00 0.00 78 1015.9
20260507214706 27 197 0.0 1.6 0.00 0.00 0.00 77 1015.8
20260507214203 27 196 0.0 0.0 0.00 0.00 0.00 78 1015.7
20260507213658 27 116 0.0 3.2 0.00 0.00 0.00 77 1015.5
20260507213156 27 186 0.0 3.2 0.00 0.00 0.00 77 1015.4
20260507212651 27 198 0.0 3.2 0.00 0.00 0.00 77 1015.3
20260507212148 27 138 1.6 3.2 0.00 0.00 0.00 75 1015.4
20260507211645 27 125 1.6 4.8 0.00 0.00 0.00 74 1015.4
20260507211141 27 45 1.6 1.6 0.00 0.00 0.00 72 1015.5
20260507210639 28 101 0.0 3.2 0.00 0.00 0.00 71 1015.6
20260507210135 28 77 3.2 4.8 0.00 0.00 0.00 70 1015.5
20260507205632 27 138 1.6 6.4 0.00 0.00 0.00 70 1015.6
20260507205128 28 179 1.6 4.8 0.00 0.00 0.00 72 1015.5
20260507204625 28 111 1.6 1.6 0.00 0.00 0.00 72 1015.7
20260507204122 28 92 1.6 4.8 0.00 0.00 0.00 72 1015.7
20260507203620 27 76 0.0 1.6 0.00 0.00 0.00 73 1015.5
20260507203117 26 76 0.0 1.6 0.00 0.00 0.00 75 1015.4
20260507202613 26 96 1.6 3.2 0.00 0.00 0.00 75 1015.4
20260507202109 26 69 1.6 4.8 0.00 0.00 0.00 75 1015.6
20260507201604 26 67 1.6 4.8 0.00 0.00 0.00 76 1015.4
20260507201102 27 81 1.6 4.8 0.00 0.00 0.00 74 1015.4
20260507200557 27 60 4.8 6.4 0.00 0.00 0.00 73 1015.6
20260507200053 27 88 9.7 14.5 0.00 0.00 0.00 76 1015.7
20260507195551 27 61 3.2 4.8 0.00 0.00 0.00 76 1015.4
20260507195048 27 88 3.2 6.4 0.00 0.00 0.00 75 1015.8
20260507194544 28 58 0.0 6.4 0.00 0.00 0.00 74 1015.8
20260507194040 28 124 4.8 11.3 0.00 0.00 0.00 74 1015.7
20260507193537 28 25 1.6 6.4 0.00 0.00 0.00 74 1015.5
20260507193034 28 79 3.2 17.7 0.00 0.00 0.00 71 1015.7
20260507192530 29 126 3.2 6.4 0.00 0.00 0.00 68 1015.8
20260507192027 28 354 3.2 9.7 0.00 0.00 0.00 69 1015.6
20260507191523 28 350 3.2 12.9 0.00 0.00 0.00 69 1015.6
20260507191020 28 81 1.6 3.2 0.00 0.00 0.00 72 1015.6
20260507190517 28 32 8.0 12.9 0.00 0.00 0.00 71 1015.5
20260507190016 28 97 4.8 6.4 0.00 0.00 0.00 71 1015.7
20260507185514 28 316 4.8 6.4 0.00 0.00 0.00 71 1015.5
20260507185010 28 96 1.6 11.3 0.00 0.00 0.00 70 1015.6
20260507184509 28 355 1.6 11.3 0.00 0.00 0.00 72 1015.6
20260507184006 29 346 6.4 12.9 0.00 0.00 0.00 69 1015.7
20260507183502 29 94 1.6 9.7 0.00 0.00 0.00 69 1015.8
20260507182959 29 75 3.2 4.8 0.00 0.00 0.00 71 1015.8
20260507182455 28 327 1.6 3.2 0.00 0.00 0.00 72 1015.8
20260507181951 28 28 4.8 9.7 0.00 0.00 0.00 71 1016.0
20260507181448 29 349 6.4 11.3 0.00 0.00 0.00 69 1016.1
20260507180944 30 32 3.2 11.3 0.00 0.00 0.00 68 1016.2
20260507180441 30 55 4.8 12.9 0.00 0.00 0.00 67 1016.1
20260507175937 31 80 6.4 9.7 0.00 0.00 0.00 65 1016.0
20260507175434 31 33 0.0 4.8 0.00 0.00 0.00 67 1016.0
20260507174932 30 154 1.6 14.5 0.00 0.00 0.00 67 1016.3
20260507174429 30 34 4.8 11.3 0.00 0.00 0.00 68 1016.3
20260507173926 30 41 3.2 12.9 0.00 0.00 0.00 67 1016.4
20260507173423 31 27 1.6 17.7 0.00 0.00 0.00 67 1016.4
20260507172920 31 8 3.2 6.4 0.00 0.00 0.00 66 1016.3
20260507172416 31 2 3.2 6.4 0.00 0.00 0.00 65 1016.6
20260507171912 31 106 4.8 6.4 0.00 0.00 0.00 64 1016.5
20260507171409 30 54 1.6 6.4 0.00 0.00 0.00 67 1016.4
20260507170906 30 338 9.7 11.3 0.00 0.00 0.00 67 1016.7
20260507170403 30 30 1.6 16.1 0.00 0.00 0.00 69 1016.6
20260507165859 31 26 4.8 6.4 0.00 0.00 0.00 67 1016.7
20260507165355 30 83 0.0 6.4 0.00 0.00 0.00 69 1016.9
20260507164851 29 49 0.0 9.7 0.00 0.00 0.00 72 1017.0
20260507164348 30 60 1.6 14.5 0.00 0.00 0.00 69 1017.3
20260507163845 30 23 0.0 9.7 0.00 0.00 0.00 69 1017.1
20260507163343 30 70 3.2 6.4 0.00 0.00 0.00 69 1017.2
20260507162839 30 36 3.2 4.8 0.00 0.00 0.00 68 1017.2
20260507162334 30 64 3.2 4.8 0.00 0.00 0.00 71 1017.2
20260507161832 30 15 6.4 9.7 0.00 0.00 0.00 73 1017.4
20260507161328 30 63 0.0 9.7 0.00 0.00 0.00 69 1017.6
20260507160825 31 32 1.6 4.8 0.00 0.00 0.00 68 1017.4
20260507160321 31 116 3.2 4.8 0.00 0.00 0.00 65 1017.4
20260507155818 31 7 4.8 4.8 0.00 0.00 0.00 67 1017.5
20260507155313 32 27 4.8 6.4 0.00 0.00 0.00 62 1017.6
20260507154810 31 44 0.0 1.6 0.00 0.00 0.00 61 1017.3
20260507154307 30 44 1.6 3.2 0.00 0.00 0.00 67 1017.5
20260507153804 30 55 0.0 1.6 0.00 0.00 0.00 66 1017.5
20260507153300 31 24 1.6 3.2 0.00 0.00 0.00 66 1017.8
20260507152757 31 141 1.6 3.2 0.00 0.00 0.00 64 1017.6
20260507152253 31 90 1.6 6.4 0.00 0.00 0.00 60 1017.5
20260507151749 32 38 1.6 3.2 0.00 0.00 0.00 58 1017.8
20260507151246 31 46 1.6 3.2 0.00 0.00 0.00 59 1017.7
20260507150743 31 85 3.2 6.4 0.00 0.00 0.00 61 1017.9
20260507150240 31 217 3.2 6.4 0.00 0.00 0.00 58 1017.8
20260507145736 31 187 1.6 3.2 0.00 0.00 0.00 62 1018.0
20260507145232 31 124 1.6 3.2 0.00 0.00 0.00 61 1017.6
20260507144729 30 252 3.2 3.2 0.00 0.00 0.00 63 1017.9
20260507144227 30 24 0.0 3.2 0.00 0.00 0.00 63 1017.6
20260507143723 31 358 3.2 6.4 0.00 0.00 0.00 62 1017.9
20260507143220 31 155 3.2 4.8 0.00 0.00 0.00 59 1017.8
20260507142716 31 247 1.6 3.2 0.00 0.00 0.00 61 1018.0
20260507142213 31 98 0.0 0.0 0.00 0.00 0.00 59 1018.0
20260507141709 31 102 1.6 3.2 0.00 0.00 0.00 59 1018.1
20260507141206 30 164 3.2 6.4 0.00 0.00 0.00 62 1018.2
20260507140702 30 339 0.0 1.6 0.00 0.00 0.00 63 1018.1
20260507140200 30 95 0.0 1.6 0.00 0.00 0.00 60 1017.9
20260507135657 31 95 1.6 1.6 0.00 0.00 0.00 58 1018.0
20260507135154 30 94 0.0 3.2 0.00 0.00 0.00 60 1018.1
20260507134650 30 91 0.0 4.8 0.00 0.00 0.00 60 1018.1
20260507134147 31 138 4.8 4.8 0.00 0.00 0.00 57 1017.8
20260507133643 31 137 0.0 1.6 0.00 0.00 0.00 58 1018.1
20260507133141 30 137 0.0 0.0 0.00 0.00 0.00 62 1018.0
20260507132638 30 137 0.0 1.6 0.00 0.00 0.00 63 1018.1
20260507132133 30 137 1.6 1.6 0.00 0.00 0.00 62 1017.8
20260507131631 29 101 0.0 1.6 0.00 0.00 0.00 62 1018.0
20260507131128 28 100 0.0 1.6 0.00 0.00 0.00 65 1017.9
20260507130624 28 100 0.0 1.6 0.00 0.00 0.00 68 1018.0
20260507130123 27 109 1.6 3.2 0.00 0.00 0.00 69 1017.9
20260507125621 27 246 0.0 0.0 0.00 0.00 0.00 76 1017.9
20260507125118 26 250 0.0 1.6 0.00 0.00 0.00 78 1017.8
20260507124614 26 250 3.2 3.2 0.00 0.00 0.00 79 1018.0
20260507124112 26 250 4.8 4.8 0.00 0.00 0.00 80 1017.8
20260507123610 25 248 3.2 4.8 0.00 0.00 0.00 81 1018.0
20260507123107 25 246 3.2 4.8 0.00 0.00 0.00 82 1017.7
20260507122602 25 245 1.6 3.2 0.00 0.00 0.00 83 1017.5
20260507122058 24 245 3.2 4.8 0.00 0.00 0.00 85 1017.5
20260507121554 24 237 3.2 3.2 0.00 0.00 0.00 85 1017.7
20260507121050 23 234 0.0 1.6 0.00 0.00 0.00 86 1017.4
20260507120546 23 234 0.0 0.0 0.00 0.00 0.00 87 1017.3
20260507120043 23 234 0.0 0.0 0.00 0.00 0.00 87 1017.3
20260507115540 23 224 1.6 3.2 0.00 0.00 0.00 88 1017.4
20260507115036 23 138 0.0 1.6 0.00 0.00 0.00 89 1017.2
20260507114531 22 137 0.0 0.0 0.00 0.00 0.00 89 1017.1
20260507114029 22 137 0.0 0.0 0.00 0.00 0.00 90 1017.3
20260507113526 22 137 0.0 0.0 0.00 0.00 0.00 90 1017.2
20260507113024 22 137 0.0 0.0 0.00 0.00 0.00 92 1017.1
20260507112521 22 137 0.0 0.0 0.00 0.00 0.00 92 1017.2
20260507112017 21 137 0.0 1.6 0.00 0.00 0.00 94 1017.2
20260507111515 21 137 0.0 1.6 0.00 0.00 0.00 95 1017.1
20260507111011 20 137 0.0 1.6 0.00 0.00 0.00 96 1017.0
20260507110508 20 137 0.0 0.0 0.00 0.00 0.00 96 1017.1
20260507110004 20 137 0.0 0.0 0.00 0.00 0.00 97 1017.1
20260507105501 20 137 0.0 1.6 0.00 0.00 0.00 97 1016.8
20260507104957 20 137 0.0 1.6 0.00 0.00 0.00 97 1017.0
20260507104455 20 143 1.6 3.2 0.00 0.00 0.00 97 1017.1
20260507103950 20 128 0.0 0.0 0.00 0.00 0.00 97 1017.1
20260507103447 19 128 0.0 0.0 0.00 0.00 0.00 97 1016.9
20260507102943 19 128 0.0 0.0 0.00 0.00 0.00 97 1016.9
20260507102440 19 128 0.0 1.6 0.00 0.00 0.00 97 1017.1
20260507101937 19 128 0.0 0.0 0.00 0.00 0.00 97 1017.0
20260507101432 19 128 0.0 1.6 0.00 0.00 0.00 97 1016.8
20260507100928 19 128 0.0 0.0 0.00 0.00 0.00 97 1016.8
20260507100426 19 124 0.0 0.0 0.00 0.00 0.00 96 1016.8
20260507095924 19 124 0.0 0.0 0.00 0.00 0.00 96 1016.8
20260507095421 19 145 0.0 1.6 0.00 0.00 0.00 96 1016.6
20260507094918 20 145 0.0 0.0 0.00 0.00 0.00 96 1016.4
20260507094414 20 145 0.0 0.0 0.00 0.00 0.00 96 1016.4
20260507093911 20 145 0.0 1.6 0.00 0.00 0.00 96 1016.5
20260507093409 19 144 0.0 1.6 0.00 0.00 0.00 96 1016.5
20260507092908 19 145 1.6 1.6 0.00 0.00 0.00 96 1016.3
20260507092403 19 145 0.0 0.0 0.00 0.00 0.00 96 1016.1
20260507091900 19 145 0.0 1.6 0.00 0.00 0.00 96 1016.3
20260507091356 19 143 0.0 0.0 0.00 0.00 0.00 96 1016.4
20260507090852 19 143 0.0 0.0 0.00 0.00 0.00 96 1016.3
20260507090349 20 142 0.0 1.6 0.00 0.00 0.00 96 1016.4
20260507085846 20 143 0.0 3.2 0.00 0.00 0.00 96 1016.6
20260507085342 20 135 0.0 0.0 0.00 0.00 0.00 96 1016.7
20260507084840 20 135 0.0 0.0 0.00 0.00 0.00 96 1016.6
20260507084336 20 135 0.0 0.0 0.00 0.00 0.00 96 1016.9
20260507083834 19 135 0.0 0.0 0.00 0.00 0.00 95 1016.6
20260507083330 20 135 0.0 0.0 0.00 0.00 0.00 95 1016.7
20260507082826 20 140 1.6 3.2 0.00 0.00 0.00 95 1016.8
20260507082322 20 140 1.6 3.2 0.00 0.00 0.00 95 1016.6
20260507081819 20 140 0.0 1.6 0.00 0.00 0.00 96 1016.6
20260507081315 20 140 0.0 0.0 0.00 0.00 0.00 96 1016.7
20260507080812 20 139 0.0 1.6 0.00 0.00 0.00 95 1016.6
20260507080308 20 138 0.0 1.6 0.00 0.00 0.00 95 1016.5
20260507075803 20 147 1.6 3.2 0.00 0.00 0.00 95 1016.6
20260507075300 20 148 0.0 0.0 0.00 0.00 0.00 95 1016.6
20260507074756 20 148 0.0 1.6 0.00 0.00 0.00 95 1016.6
20260507074255 20 148 0.0 1.6 0.00 0.00 0.00 95 1016.4
20260507073751 20 139 0.0 0.0 0.00 0.00 0.00 95 1016.5
20260507073247 20 139 0.0 0.0 0.00 0.00 0.00 95 1016.6
20260507072745 20 139 0.0 0.0 0.00 0.00 0.00 94 1016.4
20260507072243 20 139 0.0 0.0 0.00 0.00 0.00 94 1016.6
20260507071740 20 131 1.6 1.6 0.00 0.00 0.00 95 1016.6
20260507071236 20 132 0.0 0.0 0.00 0.00 0.00 95 1016.7
20260507070733 20 132 0.0 0.0 0.00 0.00 0.00 94 1016.5
20260507070230 20 132 0.0 0.0 0.00 0.00 0.00 94 1016.7
20260507065726 20 132 0.0 1.6 0.00 0.00 0.00 95 1016.8
20260507065223 20 132 0.0 0.0 0.00 0.00 0.00 94 1017.0
20260507064721 21 132 0.0 0.0 0.00 0.00 0.00 95 1016.8
20260507064220 21 130 0.0 0.0 0.00 0.00 0.00 95 1017.1
20260507063716 20 127 0.0 1.6 0.00 0.00 0.00 94 1017.1
20260507063213 21 127 0.0 0.0 0.00 0.00 0.00 94 1017.2
20260507062710 21 127 0.0 0.0 0.00 0.00 0.00 94 1017.2
20260507062208 21 127 0.0 1.6 0.00 0.00 0.00 94 1017.2
20260507061706 21 127 0.0 1.6 0.00 0.00 0.00 94 1017.2
20260507061203 21 127 0.0 0.0 0.00 0.00 0.00 94 1017.5
20260507060701 21 127 0.0 0.0 0.00 0.00 0.00 93 1017.6
20260507060157 21 127 0.0 0.0 0.00 0.00 0.00 93 1017.5
20260507055653 21 127 0.0 0.0 0.00 0.00 0.00 93 1017.4
20260507055149 21 127 0.0 0.0 0.00 0.00 0.00 92 1017.5
20260507054645 21 127 0.0 0.0 0.00 0.00 0.00 92 1017.6
20260507054142 22 127 0.0 0.0 0.00 0.00 0.00 91 1017.8
20260507053640 22 127 0.0 1.6 0.00 0.00 0.00 91 1017.7
20260507053138 22 126 0.0 1.6 0.00 0.00 0.00 91 1017.9
20260507052636 22 126 0.0 0.0 0.00 0.00 0.00 91 1017.8
20260507052132 22 126 0.0 0.0 0.00 0.00 0.00 91 1018.1
20260507051630 22 131 0.0 0.0 0.00 0.00 0.00 90 1018.0
20260507051126 22 131 0.0 0.0 0.00 0.00 0.00 91 1018.1
20260507050624 22 131 0.0 0.0 0.00 0.00 0.00 91 1018.2
20260507050120 22 131 0.0 0.0 0.00 0.00 0.00 91 1018.5
20260507045617 22 131 0.0 0.0 0.00 0.00 0.00 91 1018.4
20260507045114 22 124 0.0 0.0 0.00 0.00 0.00 92 1018.5
20260507044611 23 122 0.0 0.0 0.00 0.00 0.00 92 1018.1
20260507044108 23 127 0.0 1.6 0.00 0.00 0.00 92 1018.5
20260507043603 23 128 0.0 0.0 0.00 0.00 0.00 93 1018.4
20260507043101 23 128 0.0 0.0 0.00 0.00 0.00 93 1018.6
20260507042556 23 128 0.0 0.0 0.00 0.00 0.00 93 1018.6
20260507042052 23 128 0.0 1.6 0.00 0.00 0.00 93 1018.5
20260507041549 23 128 0.0 0.0 0.00 0.00 0.00 94 1018.6
20260507041046 23 128 0.0 0.0 0.00 0.00 0.00 94 1018.9
20260507040543 23 128 0.0 0.0 0.00 0.00 0.00 94 1018.6
20260507040039 23 128 0.0 0.0 0.00 0.00 0.00 94 1018.8
20260507035535 23 128 0.0 0.0 0.00 0.03 0.03 94 1018.8
20260507035032 23 128 0.0 0.0 0.00 0.03 0.03 93 1018.8
20260507034528 23 128 0.0 1.6 0.00 0.03 0.03 93 1018.8
20260507034026 23 128 0.0 0.0 0.00 0.03 0.03 93 1018.8
20260507033524 24 128 0.0 0.0 0.00 0.03 0.03 93 1018.7
20260507033021 24 128 1.6 1.6 0.00 0.03 0.03 93 1018.8
20260507032518 24 125 1.6 1.6 0.00 0.03 0.03 93 1019.1
20260507032014 24 136 1.6 3.2 0.00 0.03 0.03 93 1018.9
20260507031510 24 168 1.6 3.2 0.00 0.03 0.03 94 1019.0
20260507031008 24 237 0.0 0.0 0.00 0.03 0.03 94 1019.1
20260507030504 24 237 0.0 0.0 0.00 0.03 0.03 94 1018.9
20260507030002 24 237 0.0 0.0 0.00 0.03 0.03 94 1018.9
20260507025459 24 237 0.0 0.0 0.00 0.03 0.03 94 1019.2
20260507024957 24 237 0.0 0.0 0.00 0.03 0.03 94 1019.1
20260507024454 25 237 0.0 0.0 0.00 0.03 0.03 94 1018.9
20260507023950 25 237 0.0 0.0 0.00 0.03 0.03 94 1019.1
20260507023446 25 237 0.0 0.0 0.00 0.03 0.03 94 1018.9
20260507022944 25 238 0.0 0.0 0.00 0.03 0.03 94 1018.9
20260507022441 25 238 0.0 0.0 0.00 0.03 0.03 94 1018.9
20260507021936 25 238 0.0 0.0 0.00 0.03 0.03 94 1019.1
20260507021431 25 238 0.0 0.0 0.00 0.03 0.03 94 1018.8
20260507020930 25 237 0.0 0.0 0.00 0.03 0.03 94 1018.9
20260507020426 25 238 0.0 0.0 0.00 0.03 0.03 94 1019.1
20260507015923 25 238 0.0 0.0 0.00 0.03 0.03 94 1018.8
20260507015421 24 238 0.0 0.0 0.00 0.03 0.03 94 1018.6
20260507014918 24 238 0.0 0.0 0.00 0.03 0.03 94 1018.6
20260507014414 24 238 0.0 0.0 0.00 0.03 0.03 94 1018.4
20260507013911 24 238 0.0 0.0 0.00 0.03 0.03 94 1018.4
20260507013408 24 238 0.0 0.0 0.00 0.03 0.03 94 1018.4
20260507012906 24 238 0.0 0.0 0.00 0.03 0.03 94 1018.4
20260507012402 24 238 0.0 0.0 0.00 0.03 0.03 94 1018.4
20260507011859 24 238 0.0 0.0 0.00 0.03 0.03 94 1018.1
20260507011355 24 238 0.0 0.0 0.00 0.03 0.03 93 1018.4
20260507010855 24 238 0.0 0.0 0.00 0.03 0.03 93 1018.1
20260507010351 25 238 0.0 0.0 0.00 0.03 0.03 93 1018.2
20260507005849 25 238 0.0 0.0 0.00 0.03 0.03 93 1018.5
20260507005345 25 238 0.0 0.0 0.00 0.03 0.03 92 1018.1
20260507004842 25 238 0.0 0.0 0.00 0.03 0.03 92 1018.2
20260507004339 25 238 0.0 0.0 0.00 0.03 0.03 92 1018.5
20260507003836 25 238 0.0 0.0 0.00 0.03 0.03 92 1018.0
20260507003332 25 238 0.0 0.0 0.00 0.03 0.03 92 1018.2
20260507002826 25 238 0.0 0.0 0.00 0.03 0.03 91 1018.4
20260507002323 25 238 0.0 0.0 0.00 0.03 0.03 91 1018.1
20260507001821 25 238 0.0 0.0 0.00 0.03 0.03 90 1018.1
20260507001317 25 238 0.0 0.0 0.00 0.03 0.03 89 1017.9
20260507000814 25 238 0.0 0.0 0.00 0.03 0.03 89 1017.8